Home   Weather   Traun   Past weeks

Flag for Austria Past Weather in Traun, Upper Austria, Austria — Yesterday and Last 2 Weeks

Now
43 °F

Sunny.


Feels Like: 37 °F
Forecast: 40 / 64 °F
Wind: 10 mph from East

Location: Linz / Hoersching-Flughafen

Current Time: Apr 30, 2017 at 9:12:17 am

Latest Report: Apr 30, 2017 at 8:20 am


Visibility: 10 mi

Pressure: 30.04 "Hg

Humidity: 76%

Dew Point: 36 °F

Location of TraunLocation

Past Weather in Traun — Graph

°F

Traun Temperature Yesterday

Maximum temperature yesterday: 52 °F (at 2:20 pm)
Minimum temperature yesterday: 37 °F (at 12:20 am)
Average temperature yesterday: 43 °F

High & Low Weather Summary for the Past Weeks

 TemperatureHumidityPressure
High64 °F (Apr 25, 2:50 pm)100% (Apr 18, 8:50 pm)30.51 "Hg (Apr 18, 8:50 pm)
Low28 °F (Apr 20, 5:20 am)39% (Apr 24, 3:50 pm)29.68 "Hg (Apr 26, 2:50 am)
Average43 °F75%30.06 "Hg
* Reported Apr 15 7:20 am — Apr 30 7:50 am, Traun, Weather by CustomWeather, © 2017

Note: Actual official high and low records may vary slightly from our data, if they occured in-between our weather recording intervals... More about our weather records

Advertising

Traun Weather History for the Previous 24 Hours

Scroll right to see more
 ConditionsComfort  
Time TempWeatherWind HumidityBarometerVisibility
7:50 am
Sun, Apr 30
41 °FSunny.7 mph81%30.04 "Hg10 mi
7:20 am37 °FSunny.5 mph87%30.07 "Hg10 mi
6:50 am34 °FSunny.3 mph100%30.07 "Hg10 mi
6:20 am34 °FFog.2 mph100%30.07 "HgN/A
5:50 am32 °FSunny.2 mph93%30.07 "Hg10 mi
5:20 am32 °FClear.1 mph93%30.07 "Hg5 mi
4:50 am34 °FChilly.2 mph93%30.07 "Hg4 mi
4:20 am34 °FChilly.3 mph93%30.07 "HgN/A
3:50 am36 °FChilly.3 mph93%30.07 "Hg4 mi
3:20 am36 °FChilly.3 mph93%30.07 "Hg6 mi
2:50 am36 °FChilly.3 mph93%30.07 "Hg5 mi
2:20 am36 °FChilly.2 mph93%30.07 "Hg4 mi
1:50 am36 °FChilly.3 mph93%30.07 "HgN/A
1:20 am37 °FSleet. Fog.2 mph93%30.07 "Hg6 mi
12:50 am37 °FChilly.1 mph93%30.07 "HgN/A
12:20 am37 °FChilly.1 mph93%30.07 "HgN/A
11:50 pm
Sat, Apr 29
39 °FChilly.1 mph87%30.07 "HgN/A
11:20 pm37 °FChilly.1 mph93%30.07 "HgN/A
10:50 pm39 °FChilly.2 mph87%30.07 "HgN/A
10:20 pm41 °FQuite cool.1 mph81%30.07 "HgN/A
9:20 pm43 °FQuite cool.2 mph81%30.07 "HgN/A
8:50 pm46 °FPassing clouds.3 mph66%30.07 "HgN/A
8:20 pm48 °FPassing clouds.2 mph62%30.07 "HgN/A
7:50 pm48 °FOvercast.5 mph66%30.07 "HgN/A
7:20 pm50 °FOvercast.5 mph62%30.04 "HgN/A
6:50 pm50 °FPartly sunny.6 mph62%30.07 "HgN/A
6:20 pm50 °FPartly sunny.6 mph62%30.07 "HgN/A
5:50 pm50 °FPartly sunny.6 mph62%30.07 "HgN/A
5:20 pm50 °FBroken clouds.6 mph67%30.07 "HgN/A
4:50 pm50 °FPartly sunny.5 mph62%30.07 "HgN/A
4:20 pm48 °FPartly sunny.6 mph66%30.07 "HgN/A
3:50 pm48 °FSprinkles. Partly sunny.9 mph66%30.07 "HgN/A
3:20 pm50 °FBroken clouds.7 mph62%30.07 "HgN/A
2:20 pm52 °FScattered clouds.9 mph58%30.07 "HgN/A
1:50 pm50 °FScattered clouds.8 mph62%30.07 "HgN/A
1:20 pm48 °FScattered clouds.8 mph71%30.09 "HgN/A
12:50 pm50 °FScattered clouds.7 mph67%30.09 "HgN/A
12:20 pm48 °FScattered clouds.7 mph71%30.09 "HgN/A
11:50 am46 °FPartly sunny.6 mph71%30.09 "HgN/A
11:20 am45 °FPartly sunny.7 mph76%30.12 "HgN/A
10:50 am45 °FPartly sunny.9 mph71%30.12 "HgN/A
10:20 am43 °FPartly sunny.9 mph76%30.12 "HgN/A
9:20 am43 °FPartly sunny.10 mph81%30.09 "HgN/A
Weather by CustomWeather, © 2017

See weather overviewHow to use our weather pages